STARLINK-34621 (64774 NORAD) Tracking and Keplerian Element Data

This shows tracking and keplerian element data for the satellite.

Feedback or suggestion? Click here.




ElementValue
Catalog64774
NameSTARLINK-34621
Epoch Orbit2646
Epoch Day353.91293779
Epoch Year2025
RAAN253.5852
Inclination53.1615
Eccentricity0.0001206
Argument of Perigee78.5069
Mean Anonmoly281.6067
Mean Motion15.30208266
Decay Rate0.00024977
L11 64774U 25147V 25353.91293779 .00024977 00000+0 85236-3 0 9997
L22 64774 53.1615 253.5852 0001206 78.5069 281.6067 15.30208266 26466



Live tracking and technical data element details for STARLINK-34621 (NORAD 64774). STARLINK-34621 can be tracked NOW for your location showing map with azimuth and elevation plus other details from your city location.







IsCatalogInMostPopularTable: catalog: 64774, numindb: 4
Update: records affected: 1



GetName: 64774 STARLINK-34621

Hit Count: updated at: Tue, 10 Feb 2026 03:28:08 GMT